Time,TemperatureF,DewpointF,PressureIn,WindDirection,WindDirectionDegrees,WindSpeedMPH,WindSpeedGustMPH,Humidity,HourlyPrecipIn,Conditions,Clouds,dailyrainin,SolarRadiationWatts/m^2,SoftwareType,DateUTC
2013-04-28 00:02:00,65.0,46.0,-100.00,East,80,7.0,9.0,51,0.00,,,0.00,0.000000,,2013-04-28 05:02:00,
2013-04-28 00:32:00,63.0,47.0,-100.00,East,93,6.0,9.0,56,0.00,,,0.00,0.000000,,2013-04-28 05:32:00,
2013-04-28 00:42:00,63.0,47.0,-100.00,East,93,6.0,9.0,56,0.00,,,0.00,0.000000,,2013-04-28 05:42:00,
2013-04-28 00:52:00,63.0,47.0,-100.00,East,93,6.0,9.0,56,0.00,,,0.00,0.000000,,2013-04-28 05:52:00,
2013-04-28 01:01:00,63.0,47.0,-100.00,East,93,6.0,9.0,56,0.00,,,0.00,0.000000,,2013-04-28 06:01:00,
2013-04-28 01:32:00,60.0,48.0,-100.00,East,94,7.0,8.0,64,0.00,,,0.00,0.000000,,2013-04-28 06:32:00,
2013-04-28 01:42:00,60.0,48.0,-100.00,East,94,7.0,8.0,64,0.00,,,0.00,0.000000,,2013-04-28 06:42:00,
2013-04-28 01:52:00,60.0,48.0,-100.00,East,94,7.0,8.0,64,0.00,,,0.00,0.000000,,2013-04-28 06:52:00,
2013-04-28 02:01:00,60.0,48.0,-100.00,East,94,7.0,8.0,64,0.00,,,0.00,0.000000,,2013-04-28 07:01:00,
2013-04-28 02:32:00,59.0,49.0,-100.00,ENE,77,8.0,10.0,70,0.00,,,0.00,0.000000,,2013-04-28 07:32:00,
2013-04-28 02:42:00,59.0,49.0,-100.00,ENE,77,8.0,10.0,70,0.00,,,0.00,0.000000,,2013-04-28 07:42:00,
2013-04-28 02:52:00,59.0,49.0,-100.00,ENE,77,8.0,10.0,70,0.00,,,0.00,0.000000,,2013-04-28 07:52:00,
2013-04-28 03:02:00,59.0,49.0,-100.00,ENE,77,8.0,10.0,70,0.00,,,0.00,0.000000,,2013-04-28 08:02:00,
2013-04-28 03:32:00,56.0,49.0,-100.00,ESE,106,4.0,9.0,77,0.00,,,0.00,0.000000,,2013-04-28 08:32:00,
2013-04-28 03:42:00,56.0,49.0,-100.00,ESE,106,4.0,9.0,77,0.00,,,0.00,0.000000,,2013-04-28 08:42:00,
2013-04-28 03:52:00,56.0,49.0,-100.00,ESE,106,4.0,9.0,77,0.00,,,0.00,0.000000,,2013-04-28 08:52:00,
2013-04-28 04:01:00,56.0,49.0,-100.00,ESE,106,4.0,9.0,77,0.00,,,0.00,0.000000,,2013-04-28 09:01:00,
2013-04-28 04:33:00,52.0,48.0,-100.00,SE,144,6.0,7.0,87,0.00,,,0.00,0.000000,,2013-04-28 09:33:00,
2013-04-28 04:42:00,52.0,48.0,-100.00,SE,144,6.0,7.0,87,0.00,,,0.00,0.000000,,2013-04-28 09:42:00,
2013-04-28 04:53:00,52.0,48.0,-100.00,SE,144,6.0,7.0,87,0.00,,,0.00,0.000000,,2013-04-28 09:53:00,
2013-04-28 05:03:00,52.0,48.0,-100.00,SE,144,6.0,7.0,87,0.00,,,0.00,0.000000,,2013-04-28 10:03:00,
2013-04-28 05:32:00,54.0,49.0,-100.00,SE,133,5.0,7.0,84,0.00,,,0.00,0.000000,,2013-04-28 10:32:00,
2013-04-28 05:42:00,54.0,49.0,-100.00,SE,133,5.0,7.0,84,0.00,,,0.00,0.000000,,2013-04-28 10:42:00,
2013-04-28 05:53:00,54.0,49.0,-100.00,SE,133,5.0,7.0,84,0.00,,,0.00,0.000000,,2013-04-28 10:53:00,
2013-04-28 06:02:00,54.0,49.0,-100.00,SE,133,5.0,7.0,84,0.00,,,0.00,0.000000,,2013-04-28 11:02:00,
2013-04-28 06:32:00,54.0,50.0,-100.00,SSE,161,0.0,5.0,86,0.00,,,0.00,0.000000,,2013-04-28 11:32:00,
2013-04-28 06:42:00,54.0,50.0,-100.00,SSE,161,0.0,5.0,86,0.00,,,0.00,0.000000,,2013-04-28 11:42:00,
2013-04-28 06:52:00,54.0,50.0,-100.00,SSE,161,0.0,5.0,86,0.00,,,0.00,0.000000,,2013-04-28 11:52:00,
2013-04-28 07:02:00,54.0,50.0,-100.00,SSE,161,0.0,5.0,86,0.00,,,0.00,0.000000,,2013-04-28 12:02:00,
2013-04-28 07:32:00,54.0,51.0,-100.00,North,7,2.0,7.0,90,0.00,,,0.00,2.000000,,2013-04-28 12:32:00,
2013-04-28 07:42:00,54.0,51.0,-100.00,North,7,2.0,7.0,90,0.00,,,0.00,2.000000,,2013-04-28 12:42:00,
2013-04-28 07:52:00,54.0,51.0,-100.00,North,7,2.0,7.0,90,0.00,,,0.00,2.000000,,2013-04-28 12:52:00,
2013-04-28 08:02:00,54.0,51.0,-100.00,North,7,2.0,7.0,90,0.00,,,0.00,2.000000,,2013-04-28 13:02:00,
2013-04-28 08:32:00,58.0,54.0,-100.00,NNE,21,3.0,6.0,87,0.00,,,0.00,107.000000,,2013-04-28 13:32:00,
2013-04-28 08:42:00,58.0,54.0,-100.00,NNE,21,3.0,6.0,87,0.00,,,0.00,107.000000,,2013-04-28 13:42:00,
2013-04-28 08:52:00,58.0,54.0,-100.00,NNE,21,3.0,6.0,87,0.00,,,0.00,107.000000,,2013-04-28 13:52:00,
2013-04-28 09:02:00,58.0,54.0,-100.00,NNE,21,3.0,6.0,87,0.00,,,0.00,107.000000,,2013-04-28 14:02:00,
2013-04-28 09:32:00,65.0,57.0,-100.00,NW,326,4.0,8.0,76,0.00,,,0.00,349.000000,,2013-04-28 14:32:00,
2013-04-28 09:42:00,65.0,57.0,-100.00,NW,326,4.0,8.0,76,0.00,,,0.00,349.000000,,2013-04-28 14:42:00,
2013-04-28 09:52:00,65.0,57.0,-100.00,NW,326,4.0,8.0,76,0.00,,,0.00,349.000000,,2013-04-28 14:52:00,
2013-04-28 10:02:00,65.0,57.0,-100.00,NW,326,4.0,8.0,76,0.00,,,0.00,349.000000,,2013-04-28 15:02:00,
2013-04-28 10:33:00,72.0,60.0,-100.00,WNW,293,5.0,7.0,66,0.00,,,0.00,601.000000,,2013-04-28 15:33:00,
2013-04-28 10:42:00,72.0,60.0,-100.00,WNW,293,5.0,7.0,66,0.00,,,0.00,601.000000,,2013-04-28 15:42:00,
2013-04-28 10:53:00,72.0,60.0,-100.00,WNW,293,5.0,7.0,66,0.00,,,0.00,601.000000,,2013-04-28 15:53:00,
2013-04-28 11:03:00,72.0,60.0,-100.00,WNW,293,5.0,7.0,66,0.00,,,0.00,601.000000,,2013-04-28 16:03:00,
2013-04-28 11:33:00,79.0,61.0,-100.00,West,281,6.0,11.0,55,0.00,,,0.00,721.000000,,2013-04-28 16:33:00,
2013-04-28 11:43:00,79.0,61.0,-100.00,West,281,6.0,11.0,55,0.00,,,0.00,721.000000,,2013-04-28 16:43:00,
2013-04-28 11:52:00,79.0,61.0,-100.00,West,281,6.0,11.0,55,0.00,,,0.00,721.000000,,2013-04-28 16:52:00,
2013-04-28 12:02:00,79.0,61.0,-100.00,West,281,6.0,11.0,55,0.00,,,0.00,721.000000,,2013-04-28 17:02:00,
2013-04-28 12:32:00,82.0,60.0,-100.00,West,263,7.0,12.0,47,0.00,,,0.00,951.000000,,2013-04-28 17:32:00,
2013-04-28 12:43:00,82.0,60.0,-100.00,West,263,7.0,12.0,47,0.00,,,0.00,951.000000,,2013-04-28 17:43:00,
2013-04-28 12:52:00,82.0,60.0,-100.00,West,263,7.0,12.0,47,0.00,,,0.00,951.000000,,2013-04-28 17:52:00,
2013-04-28 13:02:00,82.0,60.0,-100.00,West,263,7.0,12.0,47,0.00,,,0.00,951.000000,,2013-04-28 18:02:00,
2013-04-28 13:32:00,84.0,56.0,-100.00,West,278,7.0,11.0,39,0.00,,,0.00,1031.000000,,2013-04-28 18:32:00,
2013-04-28 13:42:00,84.0,56.0,-100.00,West,278,7.0,11.0,39,0.00,,,0.00,1031.000000,,2013-04-28 18:42:00,
2013-04-28 13:52:00,84.0,56.0,-100.00,West,278,7.0,11.0,39,0.00,,,0.00,1031.000000,,2013-04-28 18:52:00,
2013-04-28 14:02:00,84.0,56.0,-100.00,West,278,7.0,11.0,39,0.00,,,0.00,1031.000000,,2013-04-28 19:02:00,
2013-04-28 14:32:00,87.0,50.0,-100.00,WSW,240,6.0,13.0,28,0.00,,,0.00,1143.000000,,2013-04-28 19:32:00,
2013-04-28 14:42:00,87.0,50.0,-100.00,WSW,240,6.0,13.0,28,0.00,,,0.00,1143.000000,,2013-04-28 19:42:00,
2013-04-28 14:52:00,87.0,50.0,-100.00,WSW,240,6.0,13.0,28,0.00,,,0.00,1143.000000,,2013-04-28 19:52:00,
2013-04-28 15:02:00,87.0,50.0,-100.00,WSW,240,6.0,13.0,28,0.00,,,0.00,1143.000000,,2013-04-28 20:02:00,
2013-04-28 15:33:00,87.0,47.0,-100.00,ESE,111,9.0,21.0,25,0.00,,,0.00,834.000000,,2013-04-28 20:33:00,
2013-04-28 15:42:00,87.0,47.0,-100.00,ESE,111,9.0,21.0,25,0.00,,,0.00,834.000000,,2013-04-28 20:42:00,
2013-04-28 15:52:00,87.0,47.0,-100.00,ESE,111,9.0,21.0,25,0.00,,,0.00,834.000000,,2013-04-28 20:52:00,
2013-04-28 16:01:00,87.0,47.0,-100.00,ESE,111,9.0,21.0,25,0.00,,,0.00,834.000000,,2013-04-28 21:01:00,
2013-04-28 16:33:00,88.0,41.0,-100.00,East,89,10.0,24.0,19,0.00,,,0.00,605.000000,,2013-04-28 21:33:00,
2013-04-28 16:42:00,88.0,41.0,-100.00,East,89,10.0,24.0,19,0.00,,,0.00,605.000000,,2013-04-28 21:42:00,
2013-04-28 16:53:00,88.0,41.0,-100.00,East,89,10.0,24.0,19,0.00,,,0.00,605.000000,,2013-04-28 21:53:00,
2013-04-28 17:03:00,88.0,41.0,-100.00,East,89,10.0,24.0,19,0.00,,,0.00,605.000000,,2013-04-28 22:03:00,
2013-04-28 17:34:00,89.0,41.0,-100.00,ESE,122,9.0,16.0,19,0.00,,,0.00,666.000000,,2013-04-28 22:34:00,
2013-04-28 17:42:00,89.0,41.0,-100.00,ESE,122,9.0,16.0,19,0.00,,,0.00,666.000000,,2013-04-28 22:42:00,
2013-04-28 17:52:00,89.0,41.0,-100.00,ESE,122,9.0,16.0,19,0.00,,,0.00,666.000000,,2013-04-28 22:52:00,
2013-04-28 18:02:00,89.0,41.0,-100.00,ESE,122,9.0,16.0,19,0.00,,,0.00,666.000000,,2013-04-28 23:02:00,
2013-04-28 18:32:00,89.0,40.0,-100.00,SSE,159,10.0,16.0,18,0.00,,,0.00,511.000000,,2013-04-28 23:32:00,
2013-04-28 18:42:00,89.0,40.0,-100.00,SSE,159,10.0,16.0,18,0.00,,,0.00,511.000000,,2013-04-28 23:42:00,
2013-04-28 18:52:00,89.0,40.0,-100.00,SSE,159,10.0,16.0,18,0.00,,,0.00,511.000000,,2013-04-28 23:52:00,
2013-04-28 19:01:00,89.0,40.0,-100.00,SSE,159,10.0,16.0,18,0.00,,,0.00,511.000000,,2013-04-29 00:01:00,
2013-04-28 20:32:00,81.0,40.0,-100.00,SE,145,7.0,16.0,23,-99.99,,,0.00,93.000000,,2013-04-29 01:32:00,
2013-04-28 20:42:00,81.0,40.0,-100.00,SE,145,7.0,16.0,23,-99.99,,,0.00,93.000000,,2013-04-29 01:42:00,
2013-04-28 20:52:00,81.0,40.0,-100.00,SE,145,7.0,16.0,23,-99.99,,,0.00,93.000000,,2013-04-29 01:52:00,
2013-04-28 21:02:00,81.0,40.0,-100.00,SE,145,7.0,16.0,23,-99.99,,,0.00,93.000000,,2013-04-29 02:02:00,
2013-04-28 21:32:00,76.0,40.0,-100.00,East,85,6.0,8.0,27,0.00,,,0.00,2.000000,,2013-04-29 02:32:00,
2013-04-28 21:42:00,76.0,40.0,-100.00,East,85,6.0,8.0,27,0.00,,,0.00,2.000000,,2013-04-29 02:42:00,
2013-04-28 21:52:00,76.0,40.0,-100.00,East,85,6.0,8.0,27,0.00,,,0.00,2.000000,,2013-04-29 02:52:00,
2013-04-28 22:01:00,76.0,40.0,-100.00,East,85,6.0,8.0,27,0.00,,,0.00,2.000000,,2013-04-29 03:01:00,
2013-04-28 22:33:00,74.0,44.0,-100.00,SE,139,8.0,11.0,34,0.00,,,0.00,0.000000,,2013-04-29 03:33:00,
2013-04-28 22:43:00,74.0,44.0,-100.00,SE,139,8.0,11.0,34,0.00,,,0.00,0.000000,,2013-04-29 03:43:00,
2013-04-28 22:53:00,74.0,44.0,-100.00,SE,139,8.0,11.0,34,0.00,,,0.00,0.000000,,2013-04-29 03:53:00,
2013-04-28 23:03:00,74.0,44.0,-100.00,SE,139,8.0,11.0,34,0.00,,,0.00,0.000000,,2013-04-29 04:03:00,
2013-04-28 23:33:00,75.0,49.0,-100.00,SSE,148,9.0,17.0,40,0.00,,,0.00,0.000000,,2013-04-29 04:33:00,
2013-04-28 23:43:00,75.0,49.0,-100.00,SSE,148,9.0,17.0,40,0.00,,,0.00,0.000000,,2013-04-29 04:43:00,
2013-04-28 23:52:00,75.0,49.0,-100.00,SSE,148,9.0,17.0,40,0.00,,,0.00,0.000000,,2013-04-29 04:52:00,